Regional Weather Roundup
Issued by NWS

Home | Current Version | Previous Version | Text Only | Print | Product List | Glossary Off
Versions: 1 2 3 4 5 6 7 8 9 10 11 12 13 14 15 16 17 18 19 20 21 22 23 24 25 26 27 28 29 30 31 32 33 34 35 36 37 38 39 40 41 42 43 44 45 46 47 48 49 50

000
ASUS43 KTOP 041408
RWRKS

WEATHER ROUNDUP FOR KANSAS
NATIONAL WEATHER SERVICE GOODLAND KS
900 AM CDT MON MAY 04 2015

NOTE:  "FAIR" INDICATES FEW OR NO CLOUDS BELOW 12,000 FEET WITH NO
SIGNIFICANT WEATHER AND/OR OBSTRUCTIONS TO VISIBILITY.

KSZ001>006-013>018-027>032-041>047-041500-
NORTHWEST KANSAS

CITY           SKY/WX    TMP DP  RH WIND       PRES   REMARKS
GOODLAND       CLOUDY    53  45  74 NE7       30.10R
HAYS           CLOUDY    59  46  63 NE7       30.01S
HILL CITY      CLOUDY    58  49  72 N10       30.02S
RUSSELL        CLOUDY    63  49  60 SW8       30.01R
$$

KSZ061>065-074>080-084>089-041500-
SOUTHWEST KANSAS

CITY           SKY/WX    TMP DP  RH WIND       PRES   REMARKS
DODGE CITY     CLOUDY    66  55  67 E12       30.01F
ELKHART          N/A     59  50  72 W6          N/A
GARDEN CITY    CLOUDY    60  56  86 NE12      29.99R
GREAT BEND     MOSUNNY   66  54  63 S6        30.02R
LIBERAL        CLOUDY    63  55  77 SE3       30.03R
PRATT          MOSUNNY   66  55  68 S8        30.03R
$$

KSZ066>073-081>083-090>101-041500-
SOUTHEAST KANSAS

CITY           SKY/WX    TMP DP  RH WIND       PRES   REMARKS
CHANUTE        MOSUNNY   69  58  67 S13       30.05R
COFFEYVILLE    MOSUNNY   70  58  65 S15       30.05R
HUTCHINSON     PTSUNNY   66  58  75 S10       30.01R
MEDICINE LODGE   N/A     65  58  78 S7        30.01R
NEWTON         CLOUDY    66  55  68 S16       30.03S
PARSONS        MOSUNNY   69  59  70 S10       30.06S
WICHITA INTL   CLOUDY    67  57  70 S12       30.02R
WICHITA JABRA  CLOUDY    68  57  68 S12       30.02R
WICHITA MCCONL CLOUDY    67  58  71 S10       30.02R
WINFIELD       PTSUNNY   69  59  70 S12       30.04R
$$

KSZ007>012-019>026-033>040-048>060-102>105-041500-
NORTHEAST KANSAS

CITY           SKY/WX    TMP DP  RH WIND       PRES   REMARKS
CONCORDIA      LGT RAIN  63  57  81 W3        30.01R
EMPORIA        MOSUNNY   68  58  70 SW8       30.02R
LAWRENCE       CLOUDY    65  58  78 S8        30.01R
MANHATTAN      CLOUDY    69  58  67 SW8       29.96R
MARYSVILLE     PTSUNNY   64  55  72 E8        30.02R
OLATHE IND     CLOUDY    63  59  87 S12       30.03F
OLATHE EXE     CLOUDY    63  59  87 S10       30.02S
SALINA         CLOUDY    67  58  72 S8        29.99R
TOPEKA BILLARD CLOUDY    66  59  78 S6        30.00S
TOPEKA FORBES  PTSUNNY   67  59  75 S9        30.00R
$$


USA.gov is the U.S. government's official web portal to all federal, state and local government web resources and services.